{"data":{"norad_id":55423,"intl_designator":"2023-014AJ","name":"STARLINK-5068","alt_names":[],"object_type":"PAYLOAD","status":"ACTIVE","operator":null,"country":"US","launch_date":"2023-01-31","launch_site_code":"AFWTR","launch_vehicle":null,"mission":null,"orbit_class":"UNKNOWN","rcs_meters":null,"size_class":null,"mass_kg":null,"dimensions":null,"purposes":["comms"],"wikipedia_slug":null,"has_3d_model":false,"image_url":null,"decayed_at":null,"tle_current":{"epoch":"2026-05-25T05:17:34.955808Z","epoch_age_seconds":52115,"freshness":"FRESH","line1":"1 55423U 23014AJ  26145.22054347 -.00000330  00000+0 -19861-4 0  9990","line2":"2 55423  69.9992 251.5754 0003098 270.0244  90.0560 14.98329211183027","mean_motion":14.98329211,"eccentricity":0.0003098,"inclination_deg":69.9992,"raan_deg":251.5754,"arg_perigee_deg":270.0244,"mean_anomaly_deg":90.056,"bstar":-1.9861e-5,"rev_number":18302,"period_min":96.107049734346,"perigee_km":569.9051603494,"apogee_km":574.2115013764,"semimajor_km":6950.1953308629,"source":"CELESTRAK","updated_at":"2026-05-25T13:38:17.798737Z"}}}